ASH3980 KIAD-KATL

Flight info

Callsign ASH3980
Flight time N/A
Altitude 28000
Route CLTCH3 FLASK OZZZI2
Aircraft E75L/M-SDE3GILORVW/S

Departure

Time 2026-05-01 14:51
Airport Washington Dulles International Airport (KIAD)

Arrival

Time N/A
Airport Hartsfield Jackson Atlanta International Airport (KATL)
Time Latitude Longitude Altitude Speed Heading
2026-05-01 14:10 38.94820 -77.44139 321 ft 0 kts 41°
2026-05-01 14:37 38.94818 -77.44141 321 ft 1 kts 41°
2026-05-01 14:38 38.94804 -77.44156 321 ft 3 kts 32°
2026-05-01 14:38 38.94786 -77.44167 321 ft 3 kts 18°
2026-05-01 14:38 38.94766 -77.44173 321 ft 3 kts
2026-05-01 14:38 38.94753 -77.44174 321 ft 3 kts 359°
2026-05-01 14:39 38.94740 -77.44174 321 ft 0 kts 358°
2026-05-01 14:39 38.94739 -77.44174 321 ft 0 kts 358°
2026-05-01 14:40 38.94740 -77.44174 321 ft 0 kts 358°
2026-05-01 14:41 38.94742 -77.44174 321 ft 1 kts 352°
2026-05-01 14:41 38.94748 -77.44196 321 ft 4 kts 266°
2026-05-01 14:41 38.94744 -77.44234 321 ft 4 kts 261°
2026-05-01 14:42 38.94738 -77.44285 321 ft 8 kts 261°
2026-05-01 14:42 38.94730 -77.44367 321 ft 11 kts 266°
2026-05-01 14:42 38.94728 -77.44461 321 ft 10 kts 270°
2026-05-01 14:42 38.94729 -77.44554 321 ft 10 kts 271°
2026-05-01 14:43 38.94730 -77.44647 321 ft 10 kts 270°
2026-05-01 14:43 38.94731 -77.44739 321 ft 10 kts 270°
2026-05-01 14:43 38.94732 -77.44833 321 ft 11 kts 270°
2026-05-01 14:43 38.94732 -77.44940 321 ft 12 kts 270°
2026-05-01 14:44 38.94733 -77.45047 321 ft 12 kts 271°
2026-05-01 14:44 38.94735 -77.45258 321 ft 12 kts 271°
2026-05-01 14:44 38.94737 -77.45379 321 ft 16 kts 271°
2026-05-01 14:45 38.94738 -77.45522 321 ft 16 kts 271°
2026-05-01 14:45 38.94582 -77.45614 321 ft 14 kts 180°
2026-05-01 14:45 38.94470 -77.45614 321 ft 17 kts 180°
2026-05-01 14:46 38.94351 -77.45616 321 ft 17 kts 180°
2026-05-01 14:46 38.94122 -77.45618 321 ft 16 kts 180°
2026-05-01 14:46 38.94011 -77.45619 321 ft 16 kts 180°
2026-05-01 14:47 38.93901 -77.45620 321 ft 16 kts 180°
2026-05-01 14:47 38.93793 -77.45621 321 ft 15 kts 181°
2026-05-01 14:47 38.93702 -77.45605 321 ft 10 kts 139°
2026-05-01 14:48 38.93603 -77.45497 321 ft 8 kts 185°
2026-05-01 14:48 38.93548 -77.45521 321 ft 8 kts 201°
2026-05-01 14:48 38.93439 -77.45576 321 ft 8 kts 201°
2026-05-01 14:49 38.93388 -77.45660 321 ft 1 kts 289°
2026-05-01 14:49 38.93395 -77.45688 321 ft 5 kts 289°
2026-05-01 14:50 38.93560 -77.46248 321 ft 87 kts 291°
2026-05-01 14:50 38.94306 -77.48809 481 ft 154 kts 290°
2026-05-01 14:51 38.94648 -77.50099 958 ft 153 kts 288°
2026-05-01 14:51 38.95442 -77.52976 1368 ft 194 kts 290°
2026-05-01 14:52 38.95488 -77.56538 2317 ft 207 kts 247°
2026-05-01 14:52 38.94756 -77.58090 3076 ft 209 kts 227°
2026-05-01 14:52 38.91900 -77.59876 3640 ft 254 kts 197°
2026-05-01 14:53 38.90132 -77.60483 4028 ft 269 kts 195°
2026-05-01 14:53 38.88297 -77.61014 4700 ft 272 kts 192°
2026-05-01 14:53 38.86441 -77.61525 5381 ft 274 kts 195°
2026-05-01 14:53 38.84595 -77.62189 6060 ft 277 kts 200°
2026-05-01 14:54 38.82775 -77.63023 6743 ft 279 kts 203°
2026-05-01 14:54 38.80974 -77.63999 7416 ft 282 kts 206°
2026-05-01 14:54 38.79182 -77.65047 8091 ft 285 kts 207°
2026-05-01 14:54 38.77364 -77.66110 8738 ft 289 kts 207°
2026-05-01 14:55 38.75521 -77.67160 9406 ft 291 kts 206°
2026-05-01 14:55 38.73660 -77.68186 10151 ft 291 kts 206°
2026-05-01 14:55 38.71804 -77.69185 10932 ft 292 kts 207°
2026-05-01 14:55 38.69877 -77.70220 11206 ft 310 kts 207°
2026-05-01 14:56 38.67832 -77.71322 11511 ft 325 kts 207°
2026-05-01 14:56 38.65728 -77.72448 12161 ft 327 kts 207°
2026-05-01 14:56 38.63636 -77.73564 12961 ft 323 kts 208°
2026-05-01 14:56 38.61564 -77.74675 13703 ft 322 kts 208°
2026-05-01 14:57 38.59516 -77.75775 14327 ft 324 kts 208°
2026-05-01 14:57 38.55328 -77.78022 15475 ft 329 kts 209°
2026-05-01 14:57 38.53209 -77.79160 16028 ft 331 kts 209°
2026-05-01 14:58 38.51292 -77.80689 16569 ft 322 kts 227°
2026-05-01 14:58 38.49775 -77.82756 17158 ft 318 kts 234°
2026-05-01 14:58 38.48346 -77.84911 17731 ft 318 kts 234°
2026-05-01 14:58 38.46889 -77.87051 18269 ft 319 kts 233°
2026-05-01 14:59 38.45420 -77.89182 18778 ft 321 kts 234°
2026-05-01 14:59 38.44067 -77.91428 19259 ft 319 kts 240°
2026-05-01 14:59 38.42823 -77.93777 19721 ft 321 kts 240°
2026-05-01 14:59 38.41552 -77.96122 20169 ft 322 kts 240°